User: anonymous   Login
Location: Newark
(14.4833°N, 101.9000°E)
Time: 05:30:58
(UTC+00:00)
Language:

NANOSAT C BR1 - Orbit

View from above orbital plane
View from above orbital plane
View from above satellite
View from above satellite

Ground track
Ground track

The orbit data is extracted from the following two-line orbital elements,

1 40024U 14033Q   20330.52812221 +.00000666 +00000-0 +74562-4 0  9998
2 40024 097.9359 258.6628 0013354 117.9262 242.3309 14.90204628349224
Epoch (UTC): 25 November 2020 12:40:29
Eccentricity: 0.0013354
inclination: 97.9359°
perigee height: 588 km
apogee height: 606 km
right ascension of ascending node: 258.6628°
argument of perigee: 117.9262°
revolutions per day: 14.90204628
mean anomaly at epoch: 242.3309°
orbit number at epoch: 34922

The dashed part of the orbit path shows where the satellite is in the earth's shadow,  

DLR